sat.trackr.live / text

‹ back to catalog

STARLINK-6222

NORAD 56481 · 2023-064AK

PAYLOAD ACTIVE UNKNOWN

§ Identity

Operator
Country
US
Launch date
2023-05-10
Launch site
AFWTR
Launch vehicle
Mass (kg)
RCS (m²)

Purposes: comms

External: N2YO · Heavens-Above · Gunter

§ Orbital elements

Epoch: 2026-09-20T22:00:03.000096Z

Period
95.73 min
Inclination
70.0012°
Eccentricity
0.0002020
Mean motion
15.04233757 rev/d
Perigee alt
552.5 km
Apogee alt
555.3 km
Semi-major
6,932.0 km
B*
-3.9831e-4
RAAN
352.0448°
Arg perigee
313.2446°
Mean anomaly
164.6027°
Rev number
577

§ Raw data

STARLINK-62221 56481U 23064AK  26263.91670139 -.00005643  00000+0 -39831-3 0  99902 56481  70.0012 352.0448 0002020 313.2446 164.6027 15.04233757  5771

JSON: /api/v1/satellites/56481 · /tle

For live sub-satellite position, see the globe view (requires WebGL).

§ Visibility from observer

Set your observer location to see the next 7 days of passes ≥ 10°. The values pass through the URL so the page stays shareable.

No JS? Fill the form by hand. The geolocation button needs JavaScript.